[[{"header":{"parameterUnit":"m.s-1","parameterCategory":1,"la1":30.2991,"la2":30.254,"lo1":-89.0895,"lo2":-89.0444,"dy":0.0017,"dx":0.0017,"nx":28,"ny":28,"refTime":"2024-07-01T03:00:00:Z","depth":0,"parameterNumber":2,"parameterNumberName":"U-component_of_WINDS"},"data":[0,0,0,0,0,0,0,0,0,0,0,0,0,0,0,0,0,0,0,0,0,0,0,0,0,0,0,0,0,0,0,0,0,0,0,0,0,0,0,0,0,0,0,0,0,0,0,0,0,0,0,0,0,0,0,0,0,0,1.0434,1.0433,0,1.0405,1.0404,1.0404,1.0345,1.0344,1.0343,1.0342,1.0311,1.0311,1.0311,0,0,0,0,0,0,0,0,0,0,0,0,0,1.0438,1.0439,1.0434,1.0433,1.0433,1.0405,1.0404,1.0404,1.0345,1.0344,1.0343,1.0341,1.0311,1.0311,1.0311,0,0,0,0,0,0,0,0,0,0,0,0,0,1.0426,1.0439,1.0434,1.04,1.0397,1.0405,1.0404,1.0404,1.0346,1.0344,1.0342,1.0341,1.031,1.0311,1.0311,1.0349,0,0,1.0312,1.0313,0,0,0,0,0,0,0,0,1.0426,1.0426,1.0406,1.0403,1.0399,1.0377,1.0395,1.0385,1.0346,1.0365,1.0342,1.034,1.0334,1.0332,1.0331,1.0347,1.0346,1.0313,1.0313,1.0313,1.0313,0,0,0,0,0,0,0,1.0427,1.0426,1.0422,1.0406,1.0401,1.0387,1.0383,1.0393,1.036,1.0363,1.0359,1.0357,1.0332,1.0331,1.033,1.0346,1.0312,1.0313,1.0313,1.0313,1.0393,1.0395,0,0,0,0,0,0,1.0433,1.0428,1.0423,1.0421,1.0409,1.0388,1.0384,1.0386,1.0359,1.0354,1.0358,1.0354,1.0331,1.0329,1.0328,1.0372,1.0313,1.0313,1.0314,1.0392,1.0394,1.0396,0,0,0,0,0,0,1.0434,1.0433,1.0424,1.0423,1.0421,1.039,1.0392,1.0386,1.0385,1.0355,1.0349,1.0363,1.0329,1.0328,1.0345,1.037,1.0313,1.0314,1.0389,1.0392,1.0395,1.0458,0,0,0,0,0,0,1.0434,1.0434,1.0448,1.0424,1.0421,1.0441,1.0394,1.0387,1.0386,1.038,1.0358,1.0353,1.0328,1.0344,1.0345,1.0369,1.0314,1.0387,1.0391,1.0394,1.0454,1.0463,1.0471,0,0,0,0,0,1.0434,1.0466,1.0449,1.0448,1.0438,1.0443,1.0441,1.0412,1.0388,1.0402,1.0383,1.0354,1.0367,1.0347,1.0347,1.0372,1.0385,1.039,1.0394,1.045,1.0461,1.0471,0,0,0,0,0,0,1.0492,1.0462,1.0443,1.0468,1.0459,1.0433,1.0449,1.0425,1.0422,1.0416,1.038,1.0376,1.0398,1.0386,1.0364,1.0408,1.0372,1.0376,1.0414,1.0425,1.0433,1.0435,1.0314,0,0,0,0,0,1.0508,1.0515,1.0488,1.0513,1.0509,1.0481,1.0481,1.046,1.0449,1.0444,1.0427,1.0417,1.0419,1.0421,1.0421,1.0452,1.0447,1.0469,1.0478,1.0485,1.0489,1.0506,1.0516,1.041,1.041,1.041,0,0,1.054,1.0525,1.0531,1.0524,1.0514,1.0522,1.0477,1.0487,1.0493,1.0446,1.0461,1.0448,1.0435,1.046,1.0469,1.045,1.0518,1.049,1.0496,1.0497,1.0512,1.0522,1.0531,1.0413,1.0412,1.0412,0,0,1.0604,1.0592,1.0612,1.0604,1.0591,1.0572,1.0577,1.0556,1.0546,1.0561,1.0526,1.0532,1.0536,1.0529,1.0525,1.0588,1.0561,1.0589,1.0634,1.0651,1.0659,1.0666,1.069,1.0699,1.0594,1.0594,1.0594,0,1.0646,1.0656,1.0626,1.0639,1.0637,1.0596,1.0616,1.0609,1.0597,1.0597,1.0576,1.0581,1.0569,1.0592,1.0608,1.0606,1.0612,1.0592,1.066,1.0667,1.0674,1.0696,1.0705,1.0598,1.0597,1.0597,1.0596,0,1.0709,1.0718,1.0735,1.0725,1.0726,1.0742,1.0714,1.0718,1.0698,1.0681,1.0698,1.0682,1.068,1.0683,1.0662,1.0704,1.0693,1.0667,1.063,1.0688,1.0708,1.0716,1.0603,1.0601,1.06,1.0599,0,0,1.0807,1.0781,1.0788,1.0784,1.0767,1.0773,1.0788,1.0786,1.0791,1.0784,1.0796,1.0802,1.0779,1.0775,1.0753,1.0768,1.0821,1.074,1.0739,1.0756,1.0867,1.0887,1.0898,1.0803,1.0804,1.0806,1.0869,0,1.0867,1.0892,1.0865,1.0896,1.0904,1.0866,1.0879,1.0871,1.0856,1.0861,1.0844,1.085,1.0817,1.0815,1.0829,1.0812,1.0843,1.0807,1.0815,1.0815,1.082,1.0908,1.0929,1.0989,1.0876,1.0878,1.0879,0,1.0939,1.0937,1.0969,1.0952,1.0954,1.0967,1.0964,1.0969,1.0959,1.0947,1.0945,1.0919,1.0933,1.0898,1.0918,1.0894,1.0896,1.0888,1.089,1.089,1.0851,1.0911,1.1007,1.1017,1.089,1.0889,1.0889,0,1.1009,1.1014,1.1034,1.1031,1.1011,1.1022,1.1014,1.1002,1.1003,1.1001,1.1001,1.1001,1.1,1.1,1.0975,1.0952,1.0999,1.0961,1.099,1.0991,1.1002,1.1001,1.1101,1.1002,1.1002,1.1002,1.1002,0,1.1079,1.11,1.1065,1.1077,1.11,1.107,1.1094,1.1082,1.1073,1.1082,1.1049,1.1059,1.1025,1.1032,1.1013,1.1033,1.1033,1.1024,1.1019,1.1027,1.1029,1.1028,1.1024,1.1004,1.1004,1.1003,1.1003,0,1.116,1.1137,1.1157,1.1137,1.1133,1.1151,1.1134,1.1145,1.1129,1.1142,1.1143,1.1118,1.1125,1.11,1.1101,1.1088,1.1119,1.1106,1.1123,1.1119,1.115,1.1148,1.1253,1.1266,1.1159,1.116,1.1161,0,1.1206,1.1221,1.1204,1.1209,1.1203,1.1211,1.1212,1.1184,1.1187,1.1178,1.1191,1.1194,1.1196,1.1208,1.1189,1.1191,1.1179,1.1215,1.1178,1.1187,1.118,1.118,1.1182,1.1223,1.1224,1.1225,1.1226,0,1.129,1.1279,1.1283,1.1284,1.1287,1.1286,1.1282,1.1288,1.1257,1.1263,1.1269,1.1271,1.1274,1.1278,1.1276,1.1268,1.1243,1.1238,1.1245,1.1254,1.1264,1.126,1.1145,1.1236,1.1235,1.1234,1.1234,1.1233,1.1356,1.1369,1.1359,1.1365,1.136,1.1358,1.1368,1.1354,1.1359,1.136,1.1343,1.1353,1.1345,1.134,1.1335,1.1343,1.1325,1.1335,1.1338,1.1341,1.1347,1.1263,1.1342,1.1342,1.1341,1.1341,1.1341,0,1.144,1.1432,1.1438,1.1435,1.144,1.1417,1.1412,1.1418,1.1428,1.1422,1.1425,1.1433,1.1438,1.1421,1.1424,1.1434,1.1422,1.1435,1.1435,1.1434,1.1362,1.1356,1.1445,1.1445,1.1445,1.1445,1.1445,1.1445,1.1484,1.1505,1.1493,1.1512,1.1504,1.1514,1.1514,1.1513,1.1508,1.1519,1.1524,1.1513,1.1503,1.1505,1.1509,1.1504,1.1507,1.1524,1.1515,1.1448,1.1438,1.1429,1.1423,1.1525,1.1525,1.1587,1.1587,1.1588]},{"header":{"parameterUnit":"m.s-1","parameterCategory":1,"la1":30.2991,"la2":30.254,"lo1":-89.0895,"lo2":-89.0444,"dy":0.0017,"dx":0.0017,"nx":28,"ny":28,"refTime":"2024-07-01T03:00:00:Z","depth":0,"parameterNumber":3,"parameterNumberName":"V-component_of_WINDS"},"data":[0,0,0,0,0,0,0,0,0,0,0,0,0,0,0,0,0,0,0,0,0,0,0,0,0,0,0,0,0,0,0,0,0,0,0,0,0,0,0,0,0,0,0,0,0,0,0,0,0,0,0,0,0,0,0,0,0,0,-3.7746,-3.7748,0,-3.7887,-3.7888,-3.789,-3.7885,-3.7883,-3.7881,-3.7879,-3.802,-3.8025,-3.8031,0,0,0,0,0,0,0,0,0,0,0,0,0,-3.7472,-3.7477,-3.7746,-3.7748,-3.775,-3.7886,-3.7888,-3.789,-3.7885,-3.7883,-3.7881,-3.7878,-3.8018,-3.8024,-3.8031,0,0,0,0,0,0,0,0,0,0,0,0,0,-3.7599,-3.7478,-3.7746,-3.7764,-3.7767,-3.7886,-3.7888,-3.7891,-3.7886,-3.7883,-3.788,-3.7877,-3.8016,-3.8024,-3.8032,-3.8142,0,0,-3.8057,-3.8061,0,0,0,0,0,0,0,0,-3.7592,-3.7609,-3.7759,-3.7763,-3.7766,-3.7865,-3.7843,-3.7975,-3.7886,-3.784,-3.7879,-3.7876,-3.7971,-3.7982,-3.8015,-3.8148,-3.8154,-3.8058,-3.8063,-3.8067,-3.8069,0,0,0,0,0,0,0,-3.7583,-3.7603,-3.7802,-3.7761,-3.7766,-3.7764,-3.7779,-3.7868,-3.792,-3.7844,-3.7844,-3.7861,-3.7972,-3.8007,-3.8018,-3.8156,-3.8058,-3.8065,-3.8071,-3.8074,-3.8389,-3.8393,0,0,0,0,0,0,-3.7571,-3.7596,-3.7797,-3.7806,-3.767,-3.7771,-3.7788,-3.7836,-3.7919,-3.7929,-3.7863,-3.786,-3.7994,-3.8009,-3.8023,-3.8159,-3.8067,-3.8075,-3.8079,-3.8386,-3.839,-3.8394,0,0,0,0,0,0,-3.7565,-3.7589,-3.7791,-3.7701,-3.7727,-3.7779,-3.7834,-3.7841,-3.7876,-3.7934,-3.7943,-3.789,-3.7992,-3.8011,-3.8113,-3.8164,-3.8078,-3.8086,-3.8382,-3.8387,-3.8392,-3.843,0,0,0,0,0,0,-3.7557,-3.7587,-3.7629,-3.7702,-3.7732,-3.788,-3.7837,-3.7846,-3.7891,-3.7888,-3.7961,-3.797,-3.7992,-3.8101,-3.8121,-3.8174,-3.8092,-3.8378,-3.8384,-3.839,-3.8424,-3.8436,-3.8445,0,0,0,0,0,-3.7547,-3.7633,-3.7631,-3.7656,-3.7786,-3.7883,-3.7899,-3.7923,-3.7895,-3.7938,-3.7975,-3.7968,-3.8155,-3.8111,-3.8134,-3.819,-3.8375,-3.8382,-3.839,-3.842,-3.8433,-3.8445,0,0,0,0,0,0,-3.7563,-3.7643,-3.7642,-3.7754,-3.7812,-3.7882,-3.7936,-3.7937,-3.8003,-3.7997,-3.8023,-3.804,-3.8142,-3.8176,-3.8126,-3.8302,-3.8261,-3.8274,-3.8276,-3.8289,-3.83,-3.8289,-3.8099,0,0,0,0,0,-3.758,-3.7652,-3.7718,-3.781,-3.784,-3.7883,-3.7926,-3.794,-3.8,-3.8024,-3.8069,-3.8127,-3.8199,-3.8246,-3.8315,-3.8429,-3.8446,-3.8479,-3.8489,-3.8498,-3.8508,-3.8573,-3.8589,-3.8419,-3.8419,-3.8419,0,0,-3.7614,-3.7667,-3.7711,-3.7815,-3.7861,-3.7936,-3.7904,-3.7983,-3.8039,-3.8036,-3.8136,-3.8171,-3.8237,-3.8346,-3.8396,-3.8378,-3.8559,-3.8507,-3.8514,-3.852,-3.8583,-3.8599,-3.8613,-3.8424,-3.8423,-3.8422,0,0,-3.7716,-3.7763,-3.7846,-3.7894,-3.7966,-3.7995,-3.8015,-3.8085,-3.8109,-3.821,-3.821,-3.8276,-3.8399,-3.8447,-3.8488,-3.8611,-3.8607,-3.8633,-3.8687,-3.875,-3.8763,-3.8775,-3.8821,-3.8836,-3.8643,-3.8643,-3.8643,0,-3.775,-3.7863,-3.7889,-3.797,-3.8016,-3.8019,-3.8104,-3.8148,-3.8238,-3.827,-3.8248,-3.8404,-3.8449,-3.8571,-3.8601,-3.8633,-3.8657,-3.8624,-3.876,-3.8772,-3.8784,-3.8827,-3.8844,-3.8646,-3.8645,-3.8645,-3.8645,0,-3.7902,-3.798,-3.8039,-3.8128,-3.8181,-3.8263,-3.8301,-3.8351,-3.8361,-3.8392,-3.8495,-3.855,-3.8631,-3.8661,-3.867,-3.8784,-3.8771,-3.8754,-3.8714,-3.8802,-3.8843,-3.886,-3.865,-3.8649,-3.8648,-3.8647,0,0,-3.8016,-3.812,-3.8141,-3.8183,-3.8263,-3.8324,-3.8407,-3.8488,-3.8531,-3.8594,-3.8664,-3.877,-3.8756,-3.8802,-3.8817,-3.8872,-3.8968,-3.8849,-3.885,-3.887,-3.9099,-3.9111,-3.913,-3.8966,-3.8969,-3.8972,-3.9093,0,-3.8127,-3.8276,-3.8302,-3.8432,-3.8505,-3.851,-3.8583,-3.864,-3.8672,-3.8738,-3.8773,-3.8848,-3.8823,-3.8851,-3.8906,-3.8944,-3.9014,-3.8936,-3.9032,-3.9035,-3.9016,-3.9151,-3.9165,-3.9277,-3.9109,-3.9112,-3.9114,0,-3.8276,-3.8344,-3.8482,-3.8555,-3.8587,-3.8651,-3.8729,-3.8793,-3.8858,-3.8877,-3.8931,-3.894,-3.9026,-3.8983,-3.9103,-3.9049,-3.909,-3.9115,-3.912,-3.913,-3.908,-3.9166,-3.9313,-3.933,-3.914,-3.9138,-3.9136,0,-3.8347,-3.8473,-3.8573,-3.8608,-3.8695,-3.874,-3.8778,-3.8841,-3.8889,-3.8957,-3.8988,-3.9064,-3.9106,-3.9165,-3.9195,-3.916,-3.9314,-3.9272,-3.9333,-3.9332,-3.9365,-3.9362,-3.9521,-3.939,-3.939,-3.9389,-3.9389,0,-3.8468,-3.8552,-3.8606,-3.8667,-3.8762,-3.8792,-3.8885,-3.8922,-3.8978,-3.9046,-3.9055,-3.9119,-3.9154,-3.9223,-3.9247,-3.9344,-3.9362,-3.938,-3.9386,-3.938,-3.9378,-3.9407,-3.9401,-3.9394,-3.9393,-3.9392,-3.9391,0,-3.8563,-3.8603,-3.8712,-3.8786,-3.8807,-3.8873,-3.8937,-3.8996,-3.9029,-3.9116,-3.9137,-3.9188,-3.927,-3.9306,-3.9407,-3.9423,-3.9534,-3.9533,-3.9512,-3.9514,-3.9574,-3.9568,-3.9758,-3.9785,-3.9634,-3.9636,-3.9637,0,-3.8638,-3.8704,-3.8786,-3.8833,-3.8873,-3.8949,-3.8999,-3.9031,-3.9082,-3.9163,-3.9213,-3.9296,-3.9364,-3.9495,-3.9541,-3.9618,-3.962,-3.9681,-3.9631,-3.9624,-3.9622,-3.9618,-3.9625,-3.969,-3.9691,-3.9692,-3.9693,0,-3.8768,-3.8785,-3.8857,-3.8937,-3.8997,-3.906,-3.9123,-3.9161,-3.9203,-3.926,-3.9346,-3.9398,-3.9503,-3.9585,-3.9666,-3.9705,-3.9707,-3.9709,-3.9727,-3.9722,-3.9708,-3.9718,-3.9538,-3.9704,-3.9703,-3.9702,-3.9702,-3.9701,-3.8856,-3.8915,-3.8983,-3.9064,-3.9115,-3.9174,-3.9234,-3.9275,-3.9347,-3.9436,-3.945,-3.9541,-3.9607,-3.9716,-3.9758,-3.983,-3.9815,-3.9841,-3.9848,-3.9854,-3.9858,-3.9697,-3.9844,-3.9844,-3.9844,-3.9844,-3.9843,0,-3.8987,-3.9032,-3.9106,-3.9194,-3.9258,-3.9256,-3.9326,-3.9379,-3.9459,-3.9521,-3.9589,-3.9687,-3.9768,-3.9821,-3.9902,-3.995,-3.9953,-3.997,-3.9967,-3.9977,-3.9866,-3.9843,-3.9966,-3.9966,-3.9966,-3.9966,-3.9966,-3.9966,-3.9063,-3.9163,-3.9189,-3.9315,-3.9359,-3.945,-3.949,-3.9545,-3.9594,-3.9705,-3.9773,-3.9807,-3.9866,-3.9952,-4.0026,-4.004,-4.007,-4.0088,-4.0101,-3.9997,-3.9984,-3.9972,-3.995,-4.0094,-4.0094,-4.0205,-4.0206,-4.0207]}]]